Location: ????? ????
(37.9717°N, 23.4051°E)
Time: 07:00:44
(UTC+00:00)

CZ-2C R/B - Visible Passes

Search period start: 22 July 2024 00:00
Search period end: 01 August 2024 00:00
Orbit: 784 x 868 km, 98.3° (Epoch: 21 July)

Date Brightness Start Highest point End Pass type
(mag) Time Alt. Az. Time Alt. Az. Time Alt. Az.
22 Jul 3.2 00:08:18 46° ESE 00:09:40 58° ENE 00:15:10 10° N visible
22 Jul 4.2 01:49:47 17° W 01:50:13 17° W 01:53:52 10° NW visible
22 Jul 3.8 23:49:07 32° ESE 23:50:43 39° ENE 23:55:53 10° N visible
23 Jul 3.7 01:30:35 26° WSW 01:31:00 26° W 01:35:39 10° NW visible
23 Jul 4.4 23:29:54 22° E 23:31:49 27° ENE 23:36:27 10° N visible
24 Jul 3.2 01:11:23 38° WSW 01:11:49 39° W 01:17:03 10° NNW visible
24 Jul 4.9 23:10:42 15° E 23:12:59 19° ENE 23:16:47 10° NNE visible
25 Jul 2.7 00:52:11 55° SW 00:52:42 58° W 00:58:14 10° NNW visible
25 Jul 5.2 22:51:47 10° E 22:54:12 13° ENE 22:56:37 10° NE visible
26 Jul 2.6 00:32:58 70° S 00:33:38 85° WSW 00:39:16 10° NNW visible
27 Jul 3.0 00:13:46 57° ESE 00:14:38 66° ENE 00:20:10 10° N visible
27 Jul 4.4 01:55:16 15° W 01:55:16 15° W 01:58:27 10° NW visible
27 Jul 3.6 23:54:35 40° E 23:55:39 44° ENE 00:00:56 10° N visible
28 Jul 3.9 01:36:04 23° W 01:36:04 23° W 01:40:24 10° NW visible
28 Jul 4.2 23:35:23 27° E 23:36:44 31° ENE 23:41:33 10° N visible
29 Jul 3.4 01:16:52 34° W 01:16:52 34° W 01:21:53 10° NNW visible
29 Jul 4.7 23:16:11 19° E 23:17:53 21° ENE 23:21:57 10° NNE visible
30 Jul 2.9 00:57:40 51° W 00:57:42 51° W 01:03:08 10° NNW visible
30 Jul 5.1 22:56:58 12° E 22:59:04 15° ENE 23:01:59 10° NNE visible
31 Jul 2.6 00:38:28 76° WSW 00:38:37 76° WSW 00:44:12 10° NNW visible
